Time,TemperatureF,DewpointF,PressureIn,WindDirection,WindDirectionDegrees,WindSpeedMPH,WindSpeedGustMPH,Humidity,HourlyPrecipIn,Conditions,Clouds,dailyrainin,SoftwareType,DateUTC
2013-04-21 00:00:00,41.6,33.2,29.88,SSE,148,0.0,14.0,72,0.00,,,0.01,Wunderground v.1.13,2013-04-21 06:00:00,
2013-04-21 00:05:00,41.6,33.2,29.88,SSE,162,0.0,14.0,72,0.00,,,0.00,Wunderground v.1.13,2013-04-21 06:05:00,
2013-04-21 00:15:00,41.3,33.3,29.88,SSE,150,0.0,14.0,73,0.00,,,0.00,Wunderground v.1.13,2013-04-21 06:15:00,
2013-04-21 00:20:00,41.2,33.2,29.89,SSE,150,0.0,14.0,73,0.00,,,0.00,Wunderground v.1.13,2013-04-21 06:20:00,
2013-04-21 00:30:00,41.2,33.2,29.89,SE,146,0.0,14.0,73,0.00,,,0.00,Wunderground v.1.13,2013-04-21 06:30:00,
2013-04-21 00:40:00,41.1,33.1,29.88,SSE,159,0.0,14.0,73,0.00,,,0.00,Wunderground v.1.13,2013-04-21 06:40:00,
2013-04-21 00:45:00,40.8,32.8,29.88,SSE,159,0.0,14.0,73,0.00,,,0.00,Wunderground v.1.13,2013-04-21 06:45:00,
2013-04-21 00:50:00,40.8,33.2,29.88,SE,143,1.0,1.0,74,0.00,,,0.00,Wunderground v.1.13,2013-04-21 06:50:00,
2013-04-21 01:00:00,40.8,33.2,29.88,South,169,0.0,14.0,74,0.00,,,0.00,Wunderground v.1.13,2013-04-21 07:00:00,
2013-04-21 01:05:00,40.6,33.0,29.88,SSE,167,0.0,14.0,74,0.00,,,0.00,Wunderground v.1.13,2013-04-21 07:05:00,
2013-04-21 01:10:00,40.6,33.0,29.88,SSE,167,0.0,14.0,74,0.00,,,0.00,Wunderground v.1.13,2013-04-21 07:10:00,
2013-04-21 01:15:00,40.8,33.5,29.88,WNW,296,0.0,14.0,75,0.00,,,0.00,Wunderground v.1.13,2013-04-21 07:15:00,
2013-04-21 01:20:00,40.9,33.6,29.90,WNW,296,0.0,14.0,75,0.00,,,0.00,Wunderground v.1.13,2013-04-21 07:20:00,
2013-04-21 01:25:00,40.9,33.6,29.90,WNW,296,0.0,14.0,75,0.00,,,0.00,Wunderground v.1.13,2013-04-21 07:25:00,
2013-04-21 01:30:00,41.3,33.6,29.90,SW,223,1.0,1.0,74,0.00,,,0.00,Wunderground v.1.13,2013-04-21 07:30:00,
2013-04-21 01:40:00,41.5,33.8,29.90,NW,319,1.0,1.0,74,0.00,,,0.00,Wunderground v.1.13,2013-04-21 07:40:00,
2013-04-21 01:45:00,41.3,34.0,29.90,NW,313,0.0,14.0,75,0.00,,,0.00,Wunderground v.1.13,2013-04-21 07:45:00,
2013-04-21 01:50:00,41.8,34.1,29.92,WSW,249,0.0,14.0,74,0.00,,,0.00,Wunderground v.1.13,2013-04-21 07:50:00,
2013-04-21 01:55:00,42.1,34.1,29.92,WSW,257,1.0,1.0,73,0.00,,,0.00,Wunderground v.1.13,2013-04-21 07:55:00,
2013-04-21 02:05:00,42.3,34.3,29.91,West,265,0.0,14.0,73,0.00,,,0.00,Wunderground v.1.13,2013-04-21 08:05:00,
2013-04-21 02:10:00,42.3,34.3,29.91,West,264,0.0,14.0,73,0.00,,,0.00,Wunderground v.1.13,2013-04-21 08:10:00,
2013-04-21 02:15:00,42.3,34.3,29.91,West,263,0.0,14.0,73,0.00,,,0.00,Wunderground v.1.13,2013-04-21 08:15:00,
2013-04-21 02:20:00,42.3,34.3,29.89,West,263,0.0,14.0,73,0.00,,,0.00,Wunderground v.1.13,2013-04-21 08:20:00,
2013-04-21 02:25:00,42.2,34.2,29.89,West,263,0.0,14.0,73,0.00,,,0.00,Wunderground v.1.13,2013-04-21 08:25:00,
2013-04-21 02:30:00,42.2,34.5,29.89,West,263,0.0,14.0,74,0.00,,,0.00,Wunderground v.1.13,2013-04-21 08:30:00,
2013-04-21 02:35:00,42.1,34.7,29.88,West,263,0.0,14.0,75,0.00,,,0.00,Wunderground v.1.13,2013-04-21 08:35:00,
2013-04-21 02:40:00,41.9,34.6,29.88,West,263,0.0,14.0,75,0.00,,,0.00,Wunderground v.1.13,2013-04-21 08:40:00,
2013-04-21 02:50:00,41.8,34.8,29.88,West,263,0.0,14.0,76,0.00,,,0.00,Wunderground v.1.13,2013-04-21 08:50:00,
2013-04-21 02:55:00,41.6,34.9,29.88,West,263,0.0,14.0,77,0.00,,,0.00,Wunderground v.1.13,2013-04-21 08:55:00,
2013-04-21 03:00:00,41.5,35.2,29.88,West,259,0.0,14.0,78,0.00,,,0.00,Wunderground v.1.13,2013-04-21 09:00:00,
2013-04-21 03:05:00,41.3,35.0,29.87,SW,232,0.0,14.0,78,0.00,,,0.00,Wunderground v.1.13,2013-04-21 09:05:00,
2013-04-21 03:15:00,41.1,35.1,29.87,South,190,0.0,14.0,79,0.00,,,0.00,Wunderground v.1.13,2013-04-21 09:15:00,
2013-04-21 03:20:00,40.8,35.1,29.87,South,190,0.0,14.0,80,0.00,,,0.00,Wunderground v.1.13,2013-04-21 09:20:00,
2013-04-21 03:25:00,40.5,34.8,29.87,South,190,0.0,14.0,80,0.00,,,0.00,Wunderground v.1.13,2013-04-21 09:25:00,
2013-04-21 03:30:00,40.3,34.6,29.87,South,190,0.0,14.0,80,0.00,,,0.00,Wunderground v.1.13,2013-04-21 09:30:00,
2013-04-21 03:35:00,40.2,34.8,29.87,South,190,0.0,14.0,81,0.00,,,0.00,Wunderground v.1.13,2013-04-21 09:35:00,
2013-04-21 03:40:00,40.1,34.7,29.87,South,190,0.0,14.0,81,0.00,,,0.00,Wunderground v.1.13,2013-04-21 09:40:00,
2013-04-21 03:45:00,39.9,34.5,29.87,South,190,0.0,14.0,81,0.00,,,0.00,Wunderground v.1.13,2013-04-21 09:45:00,
2013-04-21 03:50:00,39.9,34.9,29.86,South,190,0.0,14.0,82,0.00,,,0.00,Wunderground v.1.13,2013-04-21 09:50:00,
2013-04-21 03:55:00,39.8,34.8,29.86,South,190,0.0,14.0,82,0.00,,,0.00,Wunderground v.1.13,2013-04-21 09:55:00,
2013-04-21 04:00:00,39.6,34.6,29.86,South,190,0.0,14.0,82,0.00,,,0.00,Wunderground v.1.13,2013-04-21 10:00:00,
2013-04-21 04:10:00,39.5,34.5,29.87,South,190,0.0,14.0,82,0.00,,,0.00,Wunderground v.1.13,2013-04-21 10:10:00,
2013-04-21 04:15:00,39.5,34.8,29.87,South,190,0.0,14.0,83,0.00,,,0.00,Wunderground v.1.13,2013-04-21 10:15:00,
2013-04-21 04:20:00,39.3,34.6,29.86,South,190,0.0,14.0,83,0.00,,,0.00,Wunderground v.1.13,2013-04-21 10:20:00,
2013-04-21 04:25:00,39.2,34.5,29.86,South,190,0.0,14.0,83,0.00,,,0.00,Wunderground v.1.13,2013-04-21 10:25:00,
2013-04-21 04:35:00,39.1,34.4,29.86,South,190,0.0,14.0,83,0.00,,,0.00,Wunderground v.1.13,2013-04-21 10:35:00,
2013-04-21 04:40:00,38.9,34.2,29.86,South,190,0.0,14.0,83,0.00,,,0.00,Wunderground v.1.13,2013-04-21 10:40:00,
2013-04-21 04:45:00,38.6,33.9,29.86,South,190,0.0,14.0,83,0.00,,,0.00,Wunderground v.1.13,2013-04-21 10:45:00,
2013-04-21 04:50:00,38.3,33.6,29.85,South,190,0.0,14.0,83,0.00,,,0.00,Wunderground v.1.13,2013-04-21 10:50:00,
2013-04-21 04:55:00,38.2,33.5,29.85,South,190,0.0,14.0,83,0.00,,,0.00,Wunderground v.1.13,2013-04-21 10:55:00,
2013-04-21 05:00:00,37.9,33.5,29.85,South,190,0.0,14.0,84,0.00,,,0.00,Wunderground v.1.13,2013-04-21 11:00:00,
2013-04-21 05:10:00,37.5,33.1,29.85,South,190,0.0,14.0,84,0.00,,,0.00,Wunderground v.1.13,2013-04-21 11:10:00,
2013-04-21 05:15:00,37.2,33.1,29.85,South,190,0.0,14.0,85,0.00,,,0.00,Wunderground v.1.13,2013-04-21 11:15:00,
2013-04-21 05:25:00,36.6,32.2,29.85,South,190,0.0,14.0,84,0.00,,,0.00,Wunderground v.1.13,2013-04-21 11:25:00,
2013-04-21 05:30:00,36.2,32.1,29.85,South,190,0.0,14.0,85,0.00,,,0.00,Wunderground v.1.13,2013-04-21 11:30:00,
2013-04-21 05:35:00,35.8,31.7,29.85,South,190,0.0,14.0,85,0.00,,,0.00,Wunderground v.1.13,2013-04-21 11:35:00,
2013-04-21 05:40:00,35.5,31.4,29.85,South,190,0.0,14.0,85,0.00,,,0.00,Wunderground v.1.13,2013-04-21 11:40:00,
2013-04-21 05:45:00,35.0,31.2,29.85,South,190,0.0,14.0,86,0.00,,,0.00,Wunderground v.1.13,2013-04-21 11:45:00,
2013-04-21 05:50:00,34.9,31.1,29.86,South,190,0.0,14.0,86,0.00,,,0.00,Wunderground v.1.13,2013-04-21 11:50:00,
2013-04-21 05:55:00,34.6,30.8,29.86,South,190,0.0,14.0,86,0.00,,,0.00,Wunderground v.1.13,2013-04-21 11:55:00,
2013-04-21 06:00:00,34.3,30.8,29.86,South,190,0.0,14.0,87,0.00,,,0.00,Wunderground v.1.13,2013-04-21 12:00:00,
2013-04-21 06:05:00,34.1,30.6,29.86,South,190,0.0,14.0,87,0.00,,,0.00,Wunderground v.1.13,2013-04-21 12:05:00,
2013-04-21 06:10:00,34.1,30.9,29.86,South,190,0.0,14.0,88,0.00,,,0.00,Wunderground v.1.13,2013-04-21 12:10:00,
2013-04-21 06:15:00,34.4,31.2,29.86,South,190,0.0,14.0,88,0.00,,,0.00,Wunderground v.1.13,2013-04-21 12:15:00,
2013-04-21 06:20:00,34.7,31.8,29.87,South,190,0.0,14.0,89,0.00,,,0.00,Wunderground v.1.13,2013-04-21 12:20:00,
2013-04-21 06:25:00,35.0,32.1,29.87,South,190,0.0,14.0,89,0.00,,,0.00,Wunderground v.1.13,2013-04-21 12:25:00,
2013-04-21 06:30:00,35.8,32.9,29.87,South,190,0.0,14.0,89,0.00,,,0.00,Wunderground v.1.13,2013-04-21 12:30:00,
2013-04-21 06:35:00,36.5,33.6,29.86,South,190,0.0,14.0,89,0.00,,,0.00,Wunderground v.1.13,2013-04-21 12:35:00,
2013-04-21 06:40:00,36.9,34.0,29.86,SSW,194,0.0,14.0,89,0.00,,,0.00,Wunderground v.1.13,2013-04-21 12:40:00,
2013-04-21 06:45:00,37.5,34.3,29.86,SSW,194,0.0,14.0,88,0.00,,,0.00,Wunderground v.1.13,2013-04-21 12:45:00,
2013-04-21 06:50:00,37.8,34.6,29.86,SSW,194,0.0,14.0,88,0.00,,,0.00,Wunderground v.1.13,2013-04-21 12:50:00,
2013-04-21 06:55:00,38.2,35.0,29.86,WSW,252,0.0,14.0,88,0.00,,,0.00,Wunderground v.1.13,2013-04-21 12:55:00,
2013-04-21 07:00:00,38.6,35.1,29.86,WNW,295,0.0,14.0,87,0.00,,,0.00,Wunderground v.1.13,2013-04-21 13:00:00,
2013-04-21 07:05:00,39.1,35.3,29.87,WNW,284,0.0,14.0,86,0.00,,,0.00,Wunderground v.1.13,2013-04-21 13:05:00,
2013-04-21 07:10:00,39.5,35.7,29.87,WNW,285,0.0,14.0,86,0.00,,,0.00,Wunderground v.1.13,2013-04-21 13:10:00,
2013-04-21 07:15:00,39.9,36.1,29.87,NW,312,0.0,14.0,86,0.00,,,0.00,Wunderground v.1.13,2013-04-21 13:15:00,
2013-04-21 07:20:00,40.2,36.1,29.88,WNW,285,0.0,14.0,85,0.00,,,0.00,Wunderground v.1.13,2013-04-21 13:20:00,
2013-04-21 07:25:00,40.5,36.3,29.88,West,265,0.0,14.0,85,0.00,,,0.00,Wunderground v.1.13,2013-04-21 13:25:00,
2013-04-21 07:30:00,41.1,36.6,29.88,West,264,0.0,14.0,84,0.00,,,0.00,Wunderground v.1.13,2013-04-21 13:30:00,
2013-04-21 07:35:00,42.1,37.0,29.88,WSW,243,1.0,14.0,82,0.00,,,0.00,Wunderground v.1.13,2013-04-21 13:35:00,
2013-04-21 07:40:00,43.3,37.5,29.88,WSW,257,3.0,3.0,80,0.00,,,0.00,Wunderground v.1.13,2013-04-21 13:40:00,
2013-04-21 07:45:00,44.5,37.7,29.88,WSW,254,2.0,14.0,77,0.00,,,0.00,Wunderground v.1.13,2013-04-21 13:45:00,
2013-04-21 07:55:00,46.2,37.7,29.88,WSW,246,1.0,14.0,72,0.00,,,0.00,Wunderground v.1.13,2013-04-21 13:55:00,
2013-04-21 08:00:00,47.3,37.6,29.88,West,281,3.0,14.0,69,0.00,,,0.00,Wunderground v.1.13,2013-04-21 14:00:00,
2013-04-21 08:05:00,48.0,37.2,29.88,WNW,290,5.0,14.0,66,0.00,,,0.00,Wunderground v.1.13,2013-04-21 14:05:00,
2013-04-21 08:10:00,48.5,37.7,29.88,WNW,292,3.0,3.0,66,0.00,,,0.00,Wunderground v.1.13,2013-04-21 14:10:00,
2013-04-21 08:15:00,48.9,37.6,29.88,West,270,2.0,2.0,65,0.00,,,0.00,Wunderground v.1.13,2013-04-21 14:15:00,
2013-04-21 08:20:00,49.6,37.9,29.88,West,280,1.0,1.0,64,0.00,,,0.00,Wunderground v.1.13,2013-04-21 14:20:00,
2013-04-21 08:25:00,50.4,37.4,29.88,NNW,333,2.0,2.0,61,0.00,,,0.00,Wunderground v.1.13,2013-04-21 14:25:00,
2013-04-21 08:30:00,51.3,37.4,29.88,NW,323,3.0,3.0,59,0.00,,,0.00,Wunderground v.1.13,2013-04-21 14:30:00,
2013-04-21 08:35:00,51.7,37.8,29.88,NNW,329,3.0,14.0,59,0.00,,,0.00,Wunderground v.1.13,2013-04-21 14:35:00,
2013-04-21 08:40:00,51.9,37.6,29.88,NNW,328,8.0,15.0,58,0.00,,,0.00,Wunderground v.1.13,2013-04-21 14:40:00,
2013-04-21 08:45:00,51.9,37.6,29.88,NW,317,10.0,10.0,58,0.00,,,0.00,Wunderground v.1.13,2013-04-21 14:45:00,
2013-04-21 08:50:00,52.5,37.7,29.88,NW,319,8.0,14.0,57,0.00,,,0.00,Wunderground v.1.13,2013-04-21 14:50:00,
2013-04-21 08:55:00,52.5,37.7,29.88,WNW,297,8.0,8.0,57,0.00,,,0.00,Wunderground v.1.13,2013-04-21 14:55:00,
2013-04-21 09:00:00,52.9,37.6,29.88,NNW,340,8.0,14.0,56,0.00,,,0.00,Wunderground v.1.13,2013-04-21 15:00:00,
2013-04-21 09:05:00,53.1,37.3,29.88,NW,325,8.0,14.0,55,0.00,,,0.00,Wunderground v.1.13,2013-04-21 15:05:00,
2013-04-21 09:10:00,53.1,37.3,29.88,NNW,333,10.0,14.0,55,0.00,,,0.00,Wunderground v.1.13,2013-04-21 15:10:00,
2013-04-21 09:15:00,53.3,37.5,29.88,NW,317,11.0,14.0,55,0.00,,,0.00,Wunderground v.1.13,2013-04-21 15:15:00,
2013-04-21 09:20:00,53.5,37.7,29.89,NW,304,10.0,14.0,55,0.00,,,0.00,Wunderground v.1.13,2013-04-21 15:20:00,
2013-04-21 09:25:00,54.1,37.8,29.89,NW,313,10.0,14.0,54,0.00,,,0.00,Wunderground v.1.13,2013-04-21 15:25:00,
2013-04-21 09:35:00,55.0,38.2,29.89,NW,325,8.0,14.0,53,0.00,,,0.00,Wunderground v.1.13,2013-04-21 15:35:00,
2013-04-21 09:40:00,55.6,38.2,29.89,NNW,329,7.0,14.0,52,0.00,,,0.00,Wunderground v.1.13,2013-04-21 15:40:00,
2013-04-21 09:45:00,55.6,38.2,29.89,NW,315,8.0,8.0,52,0.00,,,0.00,Wunderground v.1.13,2013-04-21 15:45:00,
2013-04-21 09:50:00,55.6,38.2,29.89,NNW,339,11.0,11.0,52,0.00,,,0.00,Wunderground v.1.13,2013-04-21 15:50:00,
2013-04-21 09:55:00,55.6,38.7,29.89,NNW,329,12.0,12.0,53,0.00,,,0.00,Wunderground v.1.13,2013-04-21 15:55:00,
2013-04-21 10:00:00,56.0,38.6,29.89,North,351,11.0,14.0,52,0.00,,,0.00,Wunderground v.1.13,2013-04-21 16:00:00,
2013-04-21 10:05:00,56.0,39.1,29.89,NNW,345,12.0,12.0,53,0.00,,,0.00,Wunderground v.1.13,2013-04-21 16:05:00,
2013-04-21 10:10:00,56.7,40.2,29.89,North,350,10.0,14.0,54,0.00,,,0.00,Wunderground v.1.13,2013-04-21 16:10:00,
2013-04-21 10:15:00,57.0,39.0,29.89,NW,313,10.0,14.0,51,0.00,,,0.00,Wunderground v.1.13,2013-04-21 16:15:00,
2013-04-21 10:20:00,57.5,38.5,29.89,NNW,348,9.0,9.0,49,0.00,,,0.00,Wunderground v.1.13,2013-04-21 16:20:00,
2013-04-21 10:25:00,57.5,39.0,29.89,NW,312,9.0,9.0,50,0.00,,,0.00,Wunderground v.1.13,2013-04-21 16:25:00,
2013-04-21 10:30:00,57.8,38.2,29.89,NNW,348,10.0,10.0,48,0.00,,,0.00,Wunderground v.1.13,2013-04-21 16:30:00,
2013-04-21 10:35:00,58.3,39.2,29.89,NNW,341,8.0,8.0,49,0.00,,,0.00,Wunderground v.1.13,2013-04-21 16:35:00,
2013-04-21 10:40:00,58.6,36.7,29.89,NNW,340,7.0,14.0,44,0.00,,,0.00,Wunderground v.1.13,2013-04-21 16:40:00,
2013-04-21 10:45:00,58.3,37.6,29.89,NNW,346,9.0,9.0,46,0.00,,,0.00,Wunderground v.1.13,2013-04-21 16:45:00,
2013-04-21 10:50:00,58.4,36.6,29.89,NNW,336,9.0,9.0,44,0.00,,,0.00,Wunderground v.1.13,2013-04-21 16:50:00,
2013-04-21 10:55:00,58.9,38.1,29.89,North,360,7.0,7.0,46,0.00,,,0.00,Wunderground v.1.13,2013-04-21 16:55:00,
2013-04-21 11:00:00,59.5,37.0,29.89,North,9,5.0,14.0,43,0.00,,,0.00,Wunderground v.1.13,2013-04-21 17:00:00,
2013-04-21 11:05:00,59.5,35.8,29.89,North,360,5.0,14.0,41,0.00,,,0.00,Wunderground v.1.13,2013-04-21 17:05:00,
2013-04-21 11:15:00,59.2,36.7,29.89,NNW,335,6.0,6.0,43,0.00,,,0.00,Wunderground v.1.13,2013-04-21 17:15:00,
2013-04-21 11:20:00,59.8,36.0,29.88,North,360,5.0,14.0,41,0.00,,,0.00,Wunderground v.1.13,2013-04-21 17:20:00,
2013-04-21 11:30:00,59.9,36.1,29.88,NNW,348,5.0,14.0,41,0.00,,,0.00,Wunderground v.1.13,2013-04-21 17:30:00,
2013-04-21 11:35:00,60.1,36.3,29.89,North,351,4.0,4.0,41,0.00,,,0.00,Wunderground v.1.13,2013-04-21 17:35:00,
2013-04-21 11:40:00,60.1,35.7,29.89,NNW,329,2.0,14.0,40,0.00,,,0.00,Wunderground v.1.13,2013-04-21 17:40:00,
2013-04-21 11:45:00,60.4,35.3,29.89,NNW,344,4.0,14.0,39,0.00,,,0.00,Wunderground v.1.13,2013-04-21 17:45:00,
2013-04-21 11:50:00,60.7,35.6,29.88,NW,325,3.0,14.0,39,0.00,,,0.00,Wunderground v.1.13,2013-04-21 17:50:00,
2013-04-21 11:55:00,60.7,34.9,29.88,North,349,4.0,4.0,38,0.00,,,0.00,Wunderground v.1.13,2013-04-21 17:55:00,
2013-04-21 12:00:00,60.5,34.1,29.88,NE,38,4.0,4.0,37,0.00,,,0.00,Wunderground v.1.13,2013-04-21 18:00:00,
2013-04-21 12:05:00,60.9,34.4,29.88,NNE,17,2.0,2.0,37,0.00,,,0.00,Wunderground v.1.13,2013-04-21 18:05:00,
2013-04-21 12:10:00,60.9,34.4,29.88,North,351,1.0,14.0,37,0.00,,,0.00,Wunderground v.1.13,2013-04-21 18:10:00,
2013-04-21 12:15:00,61.3,34.1,29.88,North,360,2.0,2.0,36,0.00,,,0.00,Wunderground v.1.13,2013-04-21 18:15:00,
2013-04-21 12:20:00,61.3,34.8,29.88,NNE,15,1.0,1.0,37,0.00,,,0.00,Wunderground v.1.13,2013-04-21 18:20:00,
2013-04-21 12:25:00,61.5,33.6,29.88,North,351,2.0,14.0,35,0.00,,,0.00,Wunderground v.1.13,2013-04-21 18:25:00,
2013-04-21 12:30:00,61.3,33.4,29.88,NE,53,2.0,2.0,35,0.00,,,0.00,Wunderground v.1.13,2013-04-21 18:30:00,
2013-04-21 12:40:00,62.1,33.4,29.87,NNE,22,1.0,1.0,34,0.00,,,0.00,Wunderground v.1.13,2013-04-21 18:40:00,
2013-04-21 12:45:00,61.6,33.7,29.87,NNW,336,1.0,14.0,35,0.00,,,0.00,Wunderground v.1.13,2013-04-21 18:45:00,
2013-04-21 12:50:00,61.6,33.7,29.87,North,11,1.0,1.0,35,0.00,,,0.00,Wunderground v.1.13,2013-04-21 18:50:00,
2013-04-21 13:00:00,62.1,32.6,29.87,NE,46,0.0,14.0,33,0.00,,,0.00,Wunderground v.1.13,2013-04-21 19:00:00,
2013-04-21 13:05:00,62.1,32.6,29.86,NNE,17,0.0,14.0,33,0.00,,,0.00,Wunderground v.1.13,2013-04-21 19:05:00,
2013-04-21 13:10:00,62.1,34.1,29.86,WSW,244,0.0,14.0,35,0.00,,,0.00,Wunderground v.1.13,2013-04-21 19:10:00,
2013-04-21 13:15:00,62.0,33.3,29.86,NW,321,0.0,14.0,34,0.00,,,0.00,Wunderground v.1.13,2013-04-21 19:15:00,
2013-04-21 13:20:00,62.4,35.1,29.86,NNW,328,0.0,14.0,36,0.00,,,0.00,Wunderground v.1.13,2013-04-21 19:20:00,
2013-04-21 13:25:00,62.9,31.8,29.86,North,350,1.0,1.0,31,0.00,,,0.00,Wunderground v.1.13,2013-04-21 19:25:00,
2013-04-21 13:30:00,62.6,32.3,29.86,NNW,338,2.0,14.0,32,0.00,,,0.00,Wunderground v.1.13,2013-04-21 19:30:00,
2013-04-21 13:40:00,61.5,32.8,29.86,NNW,327,2.0,2.0,34,0.00,,,0.00,Wunderground v.1.13,2013-04-21 19:40:00,
2013-04-21 13:45:00,61.3,34.1,29.86,NW,325,1.0,1.0,36,0.00,,,0.00,Wunderground v.1.13,2013-04-21 19:45:00,
2013-04-21 13:50:00,61.5,32.1,29.86,WSW,250,1.0,1.0,33,0.00,,,0.00,Wunderground v.1.13,2013-04-21 19:50:00,
2013-04-21 14:00:00,61.3,32.7,29.86,WNW,286,1.0,1.0,34,0.00,,,0.00,Wunderground v.1.13,2013-04-21 20:00:00,
2013-04-21 14:05:00,62.1,31.1,29.85,WNW,295,1.0,14.0,31,0.00,,,0.00,Wunderground v.1.13,2013-04-21 20:05:00,
2013-04-21 14:10:00,62.4,32.9,29.85,NNW,334,1.0,1.0,33,0.00,,,0.00,Wunderground v.1.13,2013-04-21 20:10:00,
2013-04-21 14:15:00,62.6,31.5,29.85,West,277,1.0,1.0,31,0.00,,,0.00,Wunderground v.1.13,2013-04-21 20:15:00,
2013-04-21 14:20:00,63.1,31.1,29.85,NNW,337,1.0,1.0,30,0.00,,,0.00,Wunderground v.1.13,2013-04-21 20:20:00,
2013-04-21 14:25:00,62.9,30.1,29.85,West,277,1.0,14.0,29,0.00,,,0.00,Wunderground v.1.13,2013-04-21 20:25:00,
2013-04-21 14:35:00,63.1,31.9,29.85,NW,323,1.0,1.0,31,0.00,,,0.00,Wunderground v.1.13,2013-04-21 20:35:00,
2013-04-21 14:40:00,62.9,31.8,29.85,North,9,3.0,3.0,31,0.00,,,0.00,Wunderground v.1.13,2013-04-21 20:40:00,
2013-04-21 14:45:00,62.7,30.0,29.85,NNW,329,3.0,3.0,29,0.00,,,0.00,Wunderground v.1.13,2013-04-21 20:45:00,
2013-04-21 14:50:00,62.3,29.6,29.84,NNW,340,2.0,2.0,29,0.00,,,0.00,Wunderground v.1.13,2013-04-21 20:50:00,
2013-04-21 14:55:00,62.4,31.3,29.84,NNW,342,1.0,1.0,31,0.00,,,0.00,Wunderground v.1.13,2013-04-21 20:55:00,
2013-04-21 15:00:00,62.7,30.0,29.84,North,349,0.0,14.0,29,0.00,,,0.00,Wunderground v.1.13,2013-04-21 21:00:00,
2013-04-21 15:05:00,63.2,32.0,29.84,WNW,300,0.0,14.0,31,0.00,,,0.00,Wunderground v.1.13,2013-04-21 21:05:00,
2013-04-21 15:10:00,63.1,30.3,29.84,NW,315,0.0,14.0,29,0.00,,,0.00,Wunderground v.1.13,2013-04-21 21:10:00,
2013-04-21 15:15:00,62.9,31.0,29.84,NW,316,0.0,14.0,30,0.00,,,0.00,Wunderground v.1.13,2013-04-21 21:15:00,
2013-04-21 15:20:00,63.2,32.0,29.84,West,277,0.0,14.0,31,0.00,,,0.00,Wunderground v.1.13,2013-04-21 21:20:00,
2013-04-21 15:25:00,62.9,31.8,29.84,North,350,0.0,14.0,31,0.00,,,0.00,Wunderground v.1.13,2013-04-21 21:25:00,
2013-04-21 15:30:00,63.2,32.0,29.84,North,350,0.0,14.0,31,0.00,,,0.00,Wunderground v.1.13,2013-04-21 21:30:00,
2013-04-21 15:40:00,62.9,31.0,29.84,WNW,288,1.0,1.0,30,0.00,,,0.00,Wunderground v.1.13,2013-04-21 21:40:00,
2013-04-21 15:45:00,62.9,31.0,29.84,WSW,242,1.0,1.0,30,0.00,,,0.00,Wunderground v.1.13,2013-04-21 21:45:00,
2013-04-21 15:50:00,62.6,31.5,29.84,WNW,300,0.0,14.0,31,0.00,,,0.00,Wunderground v.1.13,2013-04-21 21:50:00,
2013-04-21 15:55:00,62.6,31.5,29.84,NNW,341,1.0,1.0,31,0.00,,,0.00,Wunderground v.1.13,2013-04-21 21:55:00,
2013-04-21 16:00:00,62.4,31.3,29.84,NNE,24,1.0,14.0,31,0.00,,,0.00,Wunderground v.1.13,2013-04-21 22:00:00,
2013-04-21 16:05:00,61.2,37.3,29.84,North,360,5.0,14.0,41,0.00,,,0.00,Wunderground v.1.13,2013-04-21 22:05:00,
2013-04-21 16:10:00,59.2,38.4,29.84,NNE,33,7.0,7.0,46,0.00,,,0.00,Wunderground v.1.13,2013-04-21 22:10:00,
2013-04-21 16:15:00,58.0,37.9,29.84,North,349,8.0,8.0,47,0.00,,,0.00,Wunderground v.1.13,2013-04-21 22:15:00,
2013-04-21 16:25:00,56.5,37.6,29.86,NNE,31,12.0,12.0,49,0.00,,,0.00,Wunderground v.1.13,2013-04-21 22:25:00,
2013-04-21 16:30:00,56.0,39.1,29.86,North,360,12.0,12.0,53,0.00,,,0.00,Wunderground v.1.13,2013-04-21 22:30:00,
2013-04-21 16:35:00,55.4,40.0,29.87,North,351,12.0,12.0,56,0.00,,,0.00,Wunderground v.1.13,2013-04-21 22:35:00,
2013-04-21 16:45:00,55.1,41.5,29.87,NNE,22,9.0,9.0,60,0.00,,,0.00,Wunderground v.1.13,2013-04-21 22:45:00,
2013-04-21 16:50:00,55.4,41.3,29.86,NNE,17,9.0,9.0,59,0.00,,,0.00,Wunderground v.1.13,2013-04-21 22:50:00,
2013-04-21 16:55:00,55.7,41.6,29.86,NE,49,7.0,14.0,59,0.00,,,0.00,Wunderground v.1.13,2013-04-21 22:55:00,
2013-04-21 17:00:00,55.6,40.6,29.86,NNE,30,8.0,14.0,57,0.00,,,0.00,Wunderground v.1.13,2013-04-21 23:00:00,
2013-04-21 17:05:00,55.4,40.9,29.86,ENE,59,9.0,14.0,58,0.00,,,0.00,Wunderground v.1.13,2013-04-21 23:05:00,
2013-04-21 17:10:00,55.6,40.6,29.86,NNE,15,8.0,8.0,57,0.00,,,0.00,Wunderground v.1.13,2013-04-21 23:10:00,
2013-04-21 17:20:00,55.9,39.5,29.86,NNE,18,4.0,4.0,54,0.00,,,0.00,Wunderground v.1.13,2013-04-21 23:20:00,
2013-04-21 17:25:00,56.0,39.1,29.86,NE,38,5.0,14.0,53,0.00,,,0.00,Wunderground v.1.13,2013-04-21 23:25:00,
2013-04-21 17:30:00,56.3,38.4,29.86,ENE,59,5.0,14.0,51,0.00,,,0.00,Wunderground v.1.13,2013-04-21 23:30:00,
2013-04-21 17:35:00,56.7,38.3,29.86,NNE,16,5.0,5.0,50,0.00,,,0.00,Wunderground v.1.13,2013-04-21 23:35:00,
2013-04-21 17:40:00,56.9,37.4,29.86,NNE,14,4.0,4.0,48,0.00,,,0.00,Wunderground v.1.13,2013-04-21 23:40:00,
2013-04-21 17:45:00,57.0,38.0,29.86,NNE,22,4.0,4.0,49,0.00,,,0.00,Wunderground v.1.13,2013-04-21 23:45:00,
2013-04-21 17:50:00,56.7,37.7,29.85,NNE,26,3.0,3.0,49,0.00,,,0.00,Wunderground v.1.13,2013-04-21 23:50:00,
2013-04-21 17:55:00,56.3,37.4,29.85,NE,51,3.0,14.0,49,0.00,,,0.00,Wunderground v.1.13,2013-04-21 23:55:00,
2013-04-21 18:00:00,56.0,37.1,29.85,NE,47,3.0,14.0,49,0.00,,,0.00,Wunderground v.1.13,2013-04-22 00:00:00,
2013-04-21 18:05:00,56.0,38.1,29.87,NE,51,2.0,14.0,51,0.00,,,0.00,Wunderground v.1.13,2013-04-22 00:05:00,
2013-04-21 18:10:00,55.9,38.0,29.87,NE,36,1.0,1.0,51,0.00,,,0.00,Wunderground v.1.13,2013-04-22 00:10:00,
2013-04-21 18:15:00,55.6,37.7,29.87,NE,46,2.0,14.0,51,0.00,,,0.00,Wunderground v.1.13,2013-04-22 00:15:00,
2013-04-21 18:20:00,55.3,38.0,29.87,NE,48,3.0,14.0,52,0.00,,,0.00,Wunderground v.1.13,2013-04-22 00:20:00,
2013-04-21 18:25:00,55.0,38.2,29.87,NE,49,3.0,14.0,53,0.00,,,0.00,Wunderground v.1.13,2013-04-22 00:25:00,
2013-04-21 18:30:00,54.7,37.9,29.87,NE,49,5.0,14.0,53,0.00,,,0.00,Wunderground v.1.13,2013-04-22 00:30:00,
2013-04-21 18:35:00,54.5,38.2,29.87,ENE,58,5.0,5.0,54,0.00,,,0.00,Wunderground v.1.13,2013-04-22 00:35:00,
2013-04-21 18:40:00,54.1,38.3,29.87,ENE,76,3.0,14.0,55,0.00,,,0.00,Wunderground v.1.13,2013-04-22 00:40:00,
2013-04-21 18:45:00,53.8,38.5,29.87,NE,40,4.0,4.0,56,0.00,,,0.00,Wunderground v.1.13,2013-04-22 00:45:00,
2013-04-21 18:50:00,53.5,38.6,29.87,NE,44,4.0,14.0,57,0.00,,,0.00,Wunderground v.1.13,2013-04-22 00:50:00,
2013-04-21 18:55:00,53.3,38.4,29.87,NE,46,4.0,4.0,57,0.00,,,0.00,Wunderground v.1.13,2013-04-22 00:55:00,
2013-04-21 19:00:00,52.9,38.5,29.87,NE,46,3.0,3.0,58,0.00,,,0.00,Wunderground v.1.13,2013-04-22 01:00:00,
2013-04-21 19:05:00,52.6,39.1,29.88,NE,49,1.0,1.0,60,0.00,,,0.00,Wunderground v.1.13,2013-04-22 01:05:00,
2013-04-21 19:10:00,52.5,39.0,29.88,ENE,57,1.0,14.0,60,0.00,,,0.00,Wunderground v.1.13,2013-04-22 01:10:00,
2013-04-21 19:15:00,52.2,38.7,29.88,NE,34,3.0,14.0,60,0.00,,,0.00,Wunderground v.1.13,2013-04-22 01:15:00,
2013-04-21 19:20:00,52.0,39.0,29.89,NNE,30,4.0,14.0,61,0.00,,,0.00,Wunderground v.1.13,2013-04-22 01:20:00,
2013-04-21 19:25:00,51.9,39.3,29.89,NNE,19,2.0,14.0,62,0.00,,,0.00,Wunderground v.1.13,2013-04-22 01:25:00,
2013-04-21 19:30:00,51.6,39.4,29.89,NE,40,2.0,2.0,63,0.00,,,0.00,Wunderground v.1.13,2013-04-22 01:30:00,
2013-04-21 19:35:00,51.3,39.5,29.88,NE,42,3.0,3.0,64,0.00,,,0.00,Wunderground v.1.13,2013-04-22 01:35:00,
2013-04-21 19:40:00,51.1,39.7,29.88,NE,41,4.0,4.0,65,0.00,,,0.00,Wunderground v.1.13,2013-04-22 01:40:00,
2013-04-21 19:45:00,51.0,40.0,29.88,NE,41,5.0,14.0,66,0.00,,,0.00,Wunderground v.1.13,2013-04-22 01:45:00,
2013-04-21 19:50:00,50.7,39.7,29.88,NE,37,4.0,4.0,66,0.00,,,0.00,Wunderground v.1.13,2013-04-22 01:50:00,
2013-04-21 19:55:00,50.4,39.9,29.88,NNE,26,2.0,2.0,67,0.00,,,0.00,Wunderground v.1.13,2013-04-22 01:55:00,
2013-04-21 20:00:00,50.1,39.9,29.88,ENE,62,1.0,1.0,68,0.00,,,0.00,Wunderground v.1.13,2013-04-22 02:00:00,
2013-04-21 20:10:00,49.9,40.1,29.88,NE,39,2.0,14.0,69,0.00,,,0.00,Wunderground v.1.13,2013-04-22 02:10:00,
2013-04-21 20:15:00,49.5,40.1,29.88,NE,43,1.0,1.0,70,0.00,,,0.00,Wunderground v.1.13,2013-04-22 02:15:00,
2013-04-21 20:20:00,49.2,40.2,29.88,NE,51,0.0,14.0,71,0.00,,,0.00,Wunderground v.1.13,2013-04-22 02:20:00,
2013-04-21 20:25:00,48.9,39.9,29.88,East,94,0.0,14.0,71,0.00,,,0.00,Wunderground v.1.13,2013-04-22 02:25:00,
2013-04-21 20:30:00,48.8,39.8,29.88,ENE,63,1.0,1.0,71,0.00,,,0.00,Wunderground v.1.13,2013-04-22 02:30:00,
2013-04-21 20:35:00,48.6,40.0,29.89,ENE,67,1.0,1.0,72,0.00,,,0.00,Wunderground v.1.13,2013-04-22 02:35:00,
2013-04-21 20:40:00,48.3,40.0,29.89,East,83,1.0,1.0,73,0.00,,,0.00,Wunderground v.1.13,2013-04-22 02:40:00,
2013-04-21 20:50:00,47.9,40.4,29.90,ENE,70,2.0,2.0,75,0.00,,,0.00,Wunderground v.1.13,2013-04-22 02:50:00,
2013-04-21 20:55:00,47.6,40.4,29.90,ENE,68,2.0,2.0,76,0.00,,,0.00,Wunderground v.1.13,2013-04-22 02:55:00,
2013-04-21 21:00:00,47.4,40.6,29.90,East,95,1.0,1.0,77,0.00,,,0.00,Wunderground v.1.13,2013-04-22 03:00:00,
2013-04-21 21:05:00,47.0,40.2,29.90,ENE,65,0.0,14.0,77,0.00,,,0.00,Wunderground v.1.13,2013-04-22 03:05:00,
2013-04-21 21:10:00,46.5,40.0,29.90,NE,46,0.0,14.0,78,0.00,,,0.00,Wunderground v.1.13,2013-04-22 03:10:00,
2013-04-21 21:15:00,46.4,40.2,29.90,East,92,1.0,1.0,79,0.00,,,0.00,Wunderground v.1.13,2013-04-22 03:15:00,
2013-04-21 21:20:00,46.2,40.0,29.90,ENE,76,1.0,14.0,79,0.00,,,0.00,Wunderground v.1.13,2013-04-22 03:20:00,
2013-04-21 21:25:00,46.1,40.3,29.90,East,94,1.0,14.0,80,0.00,,,0.00,Wunderground v.1.13,2013-04-22 03:25:00,
2013-04-21 21:30:00,46.0,40.5,29.90,East,79,1.0,1.0,81,0.00,,,0.00,Wunderground v.1.13,2013-04-22 03:30:00,
2013-04-21 21:40:00,45.8,40.6,29.91,ENE,74,0.0,14.0,82,0.00,,,0.00,Wunderground v.1.13,2013-04-22 03:40:00,
2013-04-21 21:45:00,45.5,40.3,29.91,East,96,1.0,14.0,82,0.00,,,0.00,Wunderground v.1.13,2013-04-22 03:45:00,
2013-04-21 21:50:00,45.2,40.3,29.90,ENE,72,2.0,2.0,83,0.00,,,0.00,Wunderground v.1.13,2013-04-22 03:50:00,
2013-04-21 21:55:00,45.1,40.2,29.90,ENE,63,2.0,2.0,83,0.00,,,0.00,Wunderground v.1.13,2013-04-22 03:55:00,
2013-04-21 22:00:00,44.9,40.0,29.90,East,94,1.0,1.0,83,0.00,,,0.00,Wunderground v.1.13,2013-04-22 04:00:00,
2013-04-21 22:05:00,44.6,39.8,29.90,East,84,0.0,14.0,83,0.00,,,0.00,Wunderground v.1.13,2013-04-22 04:05:00,
2013-04-21 22:10:00,44.5,40.0,29.90,East,80,0.0,14.0,84,0.00,,,0.00,Wunderground v.1.13,2013-04-22 04:10:00,
2013-04-21 22:15:00,44.3,39.8,29.90,ENE,78,0.0,14.0,84,0.00,,,0.00,Wunderground v.1.13,2013-04-22 04:15:00,
2013-04-21 22:20:00,44.1,39.6,29.90,East,98,0.0,14.0,84,0.00,,,0.00,Wunderground v.1.13,2013-04-22 04:20:00,
2013-04-21 22:25:00,44.1,39.6,29.90,East,84,0.0,14.0,84,0.00,,,0.00,Wunderground v.1.13,2013-04-22 04:25:00,
2013-04-21 22:30:00,44.1,39.6,29.90,ESE,117,0.0,14.0,84,0.00,,,0.00,Wunderground v.1.13,2013-04-22 04:30:00,
2013-04-21 22:35:00,44.2,39.7,29.91,ENE,69,0.0,14.0,84,0.00,,,0.00,Wunderground v.1.13,2013-04-22 04:35:00,
2013-04-21 22:40:00,44.2,39.7,29.91,ESE,108,0.0,14.0,84,0.00,,,0.00,Wunderground v.1.13,2013-04-22 04:40:00,
2013-04-21 22:45:00,44.1,39.3,29.91,ESE,111,0.0,14.0,83,0.00,,,0.00,Wunderground v.1.13,2013-04-22 04:45:00,
2013-04-21 22:50:00,44.1,39.3,29.91,ENE,78,0.0,14.0,83,0.00,,,0.00,Wunderground v.1.13,2013-04-22 04:50:00,
2013-04-21 22:55:00,44.2,39.4,29.91,ESE,122,0.0,14.0,83,0.00,,,0.00,Wunderground v.1.13,2013-04-22 04:55:00,
2013-04-21 23:05:00,44.1,39.6,29.91,South,177,1.0,1.0,84,0.00,,,0.00,Wunderground v.1.13,2013-04-22 05:05:00,
2013-04-21 23:10:00,43.8,39.3,29.91,SSE,167,0.0,14.0,84,0.00,,,0.00,Wunderground v.1.13,2013-04-22 05:10:00,
2013-04-21 23:15:00,43.6,39.1,29.91,ESE,119,0.0,14.0,84,0.00,,,0.00,Wunderground v.1.13,2013-04-22 05:15:00,
2013-04-21 23:20:00,43.5,39.3,29.90,SE,141,0.0,14.0,85,0.00,,,0.00,Wunderground v.1.13,2013-04-22 05:20:00,
2013-04-21 23:25:00,43.5,39.6,29.90,SSE,148,1.0,1.0,86,0.00,,,0.00,Wunderground v.1.13,2013-04-22 05:25:00,
2013-04-21 23:30:00,43.5,39.6,29.90,SE,143,0.0,14.0,86,0.00,,,0.00,Wunderground v.1.13,2013-04-22 05:30:00,
2013-04-21 23:35:00,43.5,39.6,29.90,SE,127,1.0,14.0,86,0.00,,,0.00,Wunderground v.1.13,2013-04-22 05:35:00,
2013-04-21 23:45:00,43.6,40.0,29.90,SSE,148,1.0,1.0,87,0.00,,,0.00,Wunderground v.1.13,2013-04-22 05:45:00,
2013-04-21 23:50:00,43.8,40.2,29.90,SSE,148,1.0,1.0,87,0.00,,,0.00,Wunderground v.1.13,2013-04-22 05:50:00,
2013-04-21 23:55:00,43.9,40.3,29.90,SSE,156,1.0,1.0,87,0.00,,,0.00,Wunderground v.1.13,2013-04-22 05:55:00,